Погода в Харьковском

Россия / Белгородская область     50°12′10″N   39°02′23″E
темп.,
°C
ветер,
м/с
пор.,
м/с
влажн.,
%
обл.,
%
осадки,
мм/ч
давл.,
гПа
погр.,
м
4 августа, ср
ср400:00+18с3108153 2.1 1014329
03:00+17ссз23865 2.2 101445
06:00+17сз24850 0.0 1015104
09:00+22сз34610 0.0 1016629
12:00+26сз45400 0.0 10162075
15:00+28сз45324 0.0 10162594
18:00+24ссв46457 0.0 1016316
21:00+20св224975 0.0 101714
5 августа, чт
чт500:00+18ссв225521 0.0 101814
03:00+17св226044 0.0 101813
06:00+17всв1165100 0.0 101814
09:00+23юв115015 0.0 1018373
12:00+28ююз123621 0.0 10171959
15:00+29юз1231100 0.0 10162511
18:00+28юз1139100 0.0 1015285
21:00+22в3345100 0.0 101523
6 августа, пт
пт600:00+21вюв37465 0.0 101492
03:00+19вюв395077 0.0 1013150
06:00+19вюв3105366 0.0 1013196
09:00+27юв61137100 0.0 1012595
12:00+32ююв78295 0.0 10111765
15:00+34ю782741 0.0 10093095
18:00+32ююв483434 0.0 1008223
21:00+27вюв39356 0.0 1008172
7 августа, сб
сб700:00+25юв413365 0.0 1009276
03:00+24юв51532100 0.0 1009409
06:00+23вюв5143598 0.0 1010349
09:00+28юв61130100 0.0 1010696
12:00+34юв7821100 0.0 10091979
15:00+35юв6821100 0.0 10082592
18:00+31в473191 0.0 1008119
21:00+27вюв41228100 0.0 1009216
8 августа, вс
вс800:00+26юв3430100 0.0 101065
03:00+27в4836100 0.0 1011189
06:00+24в41254100 0.1 1011340
09:00+24в3858100 0.8 1011206
12:00+28в3536100 0.0 1011441
15:00+29св3332100 0.0 1011508
18:00+28ссв2346100 0.5 1011105
21:00+24в3343100 0.6 101242